Weather History for Belmar-Farmingdale, NJ

Change the Weather History Date:

Friday, May 4, 2012

  Actual Average Record
Temperature  
Mean Temperature 19 °C -  
Max Temperature 26 °C 17 °C 31 °C (2001)
Min Temperature 12 °C 8 °C 2 °C (2002)
Growing Degree Days 16 (Base 50)    
Moisture  
Dew Point 14 °C    
Average Humidity 83    
Maximum Humidity 94    
Minimum Humidity 57    
Precipitation  
Precipitation 0.00 mm - - ()
Sea Level Pressure  
Sea Level Pressure 1015 hPa    
Wind  
Wind Speed 6 km/h (South)    
Max Wind Speed 19 km/h    
Max Gust Speed -    
Visibility 10 kilometers    
Events Thunderstorm    
Averages and records for this station are not official NWS values.
T = Trace of Precipitation, MM = Missing Value Source: NWS Daily Summary

Daily Weather History Graph

Daily Weather History Graph

Search for Another Location

Airport:

Trip Planner

Search our weather history database for the weather conditions in past years. The results will help you decide how hot, cold, wet, or windy it might be!

Date:

Astronomy

May. 04, 2012 Rise Set
Actual Time 5:51 AM EDT 7:55 PM EDT
Civil Twilight 5:22 AM EDT 8:24 PM EDT
Nautical Twilight 4:45 AM EDT 9:01 PM EDT
Astronomical Twilight 4:06 AM EDT 9:41 PM EDT
Moon 6:29 PM EDT (5/4) 4:31 AM EDT (5/4)
Length of Visible Light 15h 02m
Length of Day
14h 03m
Waxing Gibbous, 97% of the Moon is Illuminated
May 4
Waxing Gibbous
May 5
Full
May 12
Last Quarter
May 20
New
May 28
First Quarter

Hourly Weather History & Observations

Time (EDT) Temp. Dew Point Humidity Pressure Visibility Wind Dir Wind Speed Gust Speed Precip Events Conditions
12:15 AM 12.0 °C 11.0 °C 94% 1019.5 hPa 1.2 km Calm Calm - N/A   Overcast
12:35 AM 12.0 °C 11.0 °C 94% 1019.5 hPa 1.6 km Calm Calm - N/A   Overcast
12:55 AM 12.0 °C 11.0 °C 94% 1019.2 hPa 2.0 km Calm Calm - N/A   Overcast
1:15 AM 12.0 °C 11.0 °C 94% 1018.8 hPa 2.0 km Calm Calm - N/A   Overcast
1:35 AM 12.0 °C 11.0 °C 94% 1018.8 hPa 2.0 km Calm Calm - N/A   Overcast
1:55 AM 12.0 °C 11.0 °C 94% 1018.5 hPa 1.6 km Calm Calm - N/A   Overcast
2:15 AM 12.0 °C 11.0 °C 94% 1018.2 hPa 1.2 km SE 7.4 km/h / 2.1 m/s - N/A   Overcast
2:35 AM 12.0 °C 11.0 °C 94% 1017.2 hPa 0.8 km SE 9.3 km/h / 2.6 m/s - N/A   Overcast
2:55 AM 13.0 °C 12.0 °C 94% 1017.2 hPa 1.6 km SSE 9.3 km/h / 2.6 m/s - N/A   Overcast
3:15 AM 13.0 °C 12.0 °C 94% 1017.8 hPa 2.0 km SSE 5.6 km/h / 1.5 m/s - N/A   Overcast
3:35 AM 13.0 °C 12.0 °C 94% 1017.8 hPa 1.2 km Calm Calm - N/A   Overcast
3:55 AM 13.0 °C 12.0 °C 94% 1017.2 hPa 1.2 km South 5.6 km/h / 1.5 m/s - N/A   Overcast
4:15 AM 13.0 °C 12.0 °C 94% 1016.8 hPa 1.2 km South 5.6 km/h / 1.5 m/s - N/A   Overcast
4:35 AM 13.0 °C 12.0 °C 94% 1016.5 hPa 1.2 km SSE 11.1 km/h / 3.1 m/s - N/A   Overcast
4:55 AM 13.0 °C 12.0 °C 94% 1016.1 hPa 0.8 km SSE 9.3 km/h / 2.6 m/s - N/A   Overcast
5:15 AM 13.0 °C 12.0 °C 94% 1016.5 hPa 1.2 km Calm Calm - N/A   Overcast
5:35 AM 13.0 °C 12.0 °C 94% 1016.8 hPa 1.6 km South 7.4 km/h / 2.1 m/s - N/A   Overcast
5:55 AM 13.0 °C 12.0 °C 94% 1017.2 hPa 1.6 km Calm Calm - N/A   Overcast
6:15 AM 13.0 °C 12.0 °C 94% 1018.2 hPa 1.2 km North 13.0 km/h / 3.6 m/s - N/A   Overcast
6:35 AM 13.0 °C 12.0 °C 94% 1017.8 hPa 1.2 km North 5.6 km/h / 1.5 m/s - N/A   Overcast
6:55 AM 13.0 °C 12.0 °C 94% 1018.5 hPa 1.2 km North 9.3 km/h / 2.6 m/s - N/A   Overcast
7:15 AM 13.0 °C 12.0 °C 94% 1017.5 hPa 2.8 km Calm Calm - N/A   Overcast
7:35 AM 13.0 °C 12.0 °C 94% 1017.2 hPa 6.4 km ESE 11.1 km/h / 3.1 m/s - N/A   Overcast
7:55 AM 13.0 °C 12.0 °C 94% 1017.2 hPa 4.8 km SE 13.0 km/h / 3.6 m/s - N/A   Overcast
8:15 AM 13.0 °C 12.0 °C 94% 1017.2 hPa 2.4 km SE 13.0 km/h / 3.6 m/s - N/A   Overcast
8:35 AM 13.0 °C 12.0 °C 94% 1016.8 hPa 2.0 km South 13.0 km/h / 3.6 m/s - N/A   Overcast
8:55 AM 13.0 °C 12.0 °C 94% 1016.8 hPa 4.0 km South 9.3 km/h / 2.6 m/s - N/A   Overcast
9:15 AM 14.0 °C 13.0 °C 94% 1016.5 hPa 14.5 km South 11.1 km/h / 3.1 m/s - N/A   Overcast
9:35 AM 14.0 °C 13.0 °C 94% 1016.5 hPa 8.0 km SSW 11.1 km/h / 3.1 m/s - N/A   Overcast
9:55 AM 14.0 °C 13.0 °C 94% 1016.5 hPa 8.0 km SW 9.3 km/h / 2.6 m/s - N/A   Overcast
10:15 AM 15.0 °C 14.0 °C 94% 1016.1 hPa 12.9 km SSW 13.0 km/h / 3.6 m/s - N/A   Overcast
10:35 AM 16.0 °C 14.0 °C 88% 1015.8 hPa 16.1 km SW 11.1 km/h / 3.1 m/s - N/A   Overcast
10:55 AM 17.0 °C 14.0 °C 82% 1015.8 hPa 16.1 km SSW 14.8 km/h / 4.1 m/s - N/A   Overcast
11:15 AM 17.0 °C 15.0 °C 88% 1015.1 hPa 16.1 km SW 13.0 km/h / 3.6 m/s - N/A   Overcast
11:35 AM 18.0 °C 15.0 °C 83% 1014.8 hPa 16.1 km SW 14.8 km/h / 4.1 m/s - N/A   Overcast
11:55 AM 18.0 °C 15.0 °C 83% 1014.4 hPa 16.1 km WSW 13.0 km/h / 3.6 m/s - N/A   Overcast
12:15 PM 19.0 °C 16.0 °C 83% 1014.8 hPa 16.1 km WSW 9.3 km/h / 2.6 m/s - N/A   Overcast
12:35 PM 19.0 °C 16.0 °C 83% 1014.8 hPa 16.1 km WSW 11.1 km/h / 3.1 m/s - N/A   Overcast
12:55 PM 20.0 °C 16.0 °C 78% 1014.4 hPa 16.1 km West 16.7 km/h / 4.6 m/s - N/A   Overcast
1:15 PM 21.0 °C 16.0 °C 73% 1014.4 hPa 16.1 km West 14.8 km/h / 4.1 m/s - N/A   Overcast
1:35 PM 21.0 °C 17.0 °C 78% 1014.4 hPa 16.1 km West 18.5 km/h / 5.1 m/s - N/A   Overcast
1:55 PM 22.0 °C 17.0 °C 73% 1014.4 hPa 16.1 km West 18.5 km/h / 5.1 m/s - N/A   Mostly Cloudy
2:15 PM 22.0 °C 17.0 °C 73% 1014.1 hPa 16.1 km WNW 13.0 km/h / 3.6 m/s - N/A   Scattered Clouds
2:35 PM 23.0 °C 17.0 °C 69% 1014.1 hPa 16.1 km WNW 18.5 km/h / 5.1 m/s - N/A   Partly Cloudy
2:55 PM 23.0 °C 17.0 °C 69% 1014.1 hPa 16.1 km WNW 13.0 km/h / 3.6 m/s - N/A   Clear
3:15 PM 23.0 °C 17.0 °C 69% 1013.8 hPa 16.1 km West 16.7 km/h / 4.6 m/s - N/A   Clear
3:35 PM 24.0 °C 17.0 °C 65% 1013.4 hPa 16.1 km WNW 13.0 km/h / 3.6 m/s - N/A   Clear
3:55 PM 24.0 °C 17.0 °C 65% 1013.1 hPa 16.1 km WNW 13.0 km/h / 3.6 m/s - N/A   Clear
4:15 PM 25.0 °C 17.0 °C 61% 1012.8 hPa 16.1 km West 11.1 km/h / 3.1 m/s - N/A   Clear
4:35 PM 26.0 °C 17.0 °C 57% 1012.4 hPa 16.1 km WNW 7.4 km/h / 2.1 m/s - N/A   Clear
4:55 PM 26.0 °C 17.0 °C 57% 1012.4 hPa 16.1 km WSW 11.1 km/h / 3.1 m/s - N/A   Clear
5:15 PM 26.0 °C 17.0 °C 57% 1012.1 hPa 16.1 km SW 7.4 km/h / 2.1 m/s - N/A   Clear
5:35 PM 26.0 °C 17.0 °C 57% 1011.7 hPa 16.1 km West 5.6 km/h / 1.5 m/s - N/A   Clear
5:55 PM 26.0 °C 17.0 °C 57% 1011.4 hPa 16.1 km Calm Calm - N/A   Clear
6:15 PM 24.0 °C 16.0 °C 61% 1011.4 hPa 16.1 km East 14.8 km/h / 4.1 m/s - N/A   Clear
6:35 PM 23.0 °C 16.0 °C 65% 1011.4 hPa 16.1 km East 9.3 km/h / 2.6 m/s - N/A   Clear
6:55 PM 22.0 °C 16.0 °C 69% 1011.1 hPa 16.1 km East 11.1 km/h / 3.1 m/s - N/A   Clear
7:15 PM 21.0 °C 16.0 °C 73% 1011.4 hPa 16.1 km East 9.3 km/h / 2.6 m/s - N/A   Scattered Clouds
7:35 PM 21.0 °C 15.0 °C 68% 1012.1 hPa 16.1 km SE 9.3 km/h / 2.6 m/s - N/A   Scattered Clouds
8:15 PM 19.0 °C 14.0 °C 73% 1012.1 hPa 16.1 km SSE 7.4 km/h / 2.1 m/s - N/A   Mostly Cloudy
8:35 PM 18.0 °C 15.0 °C 83% 1012.4 hPa 16.1 km East 7.4 km/h / 2.1 m/s - N/A   Overcast
8:55 PM 18.0 °C 14.0 °C 77% 1012.4 hPa 16.1 km East 9.3 km/h / 2.6 m/s - N/A   Scattered Clouds
9:15 PM 17.0 °C 14.0 °C 82% 1012.4 hPa 16.1 km ESE 5.6 km/h / 1.5 m/s - N/A   Clear
9:35 PM 17.0 °C 14.0 °C 82% 1012.4 hPa 16.1 km ESE 5.6 km/h / 1.5 m/s - N/A   Clear
9:55 PM 17.0 °C 14.0 °C 82% 1012.4 hPa 16.1 km East 5.6 km/h / 1.5 m/s - N/A   Clear
10:15 PM 16.0 °C 13.0 °C 82% 1012.4 hPa 16.1 km ESE 7.4 km/h / 2.1 m/s - N/A   Clear
10:35 PM 16.0 °C 13.0 °C 82% 1012.4 hPa 16.1 km East 7.4 km/h / 2.1 m/s - N/A   Partly Cloudy
10:55 PM 16.0 °C 13.0 °C 82% 1012.8 hPa 16.1 km ESE 5.6 km/h / 1.5 m/s - N/A   Mostly Cloudy
11:15 PM 16.0 °C 13.0 °C 82% 1012.8 hPa 16.1 km ESE 5.6 km/h / 1.5 m/s - N/A   Scattered Clouds
11:35 PM 16.0 °C 13.0 °C 82% 1012.4 hPa 16.1 km ENE 7.4 km/h / 2.1 m/s - N/A   Mostly Cloudy
11:55 PM 16.0 °C 13.0 °C 82% 1012.4 hPa 16.1 km East 11.1 km/h / 3.1 m/s - N/A Thunderstorm Overcast